Погода в Дар-эс-Саламе

Танзания     6°46′39″S   39°13′57″E
темп.,
°C
ветер,
м/с
пор.,
м/с
влажн.,
%
обл.,
%
осадки,
мм/ч
давл.,
гПа
погр.,
м
9 декабря, чт
чт900:00+25юв2488100 0.4 1014169
03:00+24ююв1289100 0.4 1012120
06:00+23юз2293100 0.0 101455
09:00+27ююв127590 0.1 1015571
12:00+30всв446228 0.8 10131196
15:00+30в555411 1.4 10111284
18:00+27в56725 0.0 1011698
21:00+26вюв36755 0.0 1013457
10 декабря, пт
пт1000:00+26в36765 0.0 1013385
03:00+26всв348025 0.0 1011286
06:00+25всв248518 0.3 1012163
09:00+28ссв34714 0.8 1014854
12:00+30св33584 0.2 10121345
15:00+31всв43572 0.2 10101400
18:00+28в45705 0.0 1010678
21:00+27в35725 0.0 1012450
11 декабря, сб
сб1100:00+26в247811 0.0 1012272
03:00+25в24846 0.3 1010188
06:00+25всв23876 0.3 1012142
09:00+27св237427 1.1 1013752
12:00+30св345821 0.1 10121274
15:00+30всв44608 0.1 10101150
18:00+28всв46685 0.0 1010790
21:00+27всв467220 0.1 1013716
12 декабря, вс
вс1200:00+26св358111 0.5 1012218
03:00+25всв23825 0.7 1010114
06:00+25св238578 1.1 1012108
09:00+28св346581 1.5 1014913
12:00+30св345640 0.0 10131134
15:00+29всв3460100 0.0 1010869
18:00+28всв466839 0.0 1011685
21:00+27всв3673100 0.1 1013598
13 декабря, пн
пн1300:00+25всв358714 2.3 1013162
03:00+25всв238714 3.1 1011133
06:00+25ссв128777 0.7 1012113
09:00+28св227393 0.9 1014808
12:00+30св335999 0.6 10121215
15:00+31всв4356100 0.6 10101133
18:00+28в456893 0.0 1010611
21:00+27в357315 0.0 1012474